Location: Caltech
(34.1382°N, 118.1253°W)
Time: 07:26:40
(UTC-07:00)

KITSAT 1 - Visible Passes

Search period start: 23 April 2014 00:00
Search period end: 03 May 2014 00:00
Orbit: 1306 x 1325 km, 66.1° (Epoch: 21 April)

Date Brightness Start Highest point End Pass type
(mag) Time Alt. Az. Time Alt. Az. Time Alt. Az.
23 Apr 10.6 02:09:46 56° NE 02:09:46 56° NE 02:16:03 10° NNE visible
23 Apr 11.4 04:01:44 22° WNW 04:04:03 25° NW 04:10:28 10° N visible
24 Apr 12.3 00:33:20 13° ENE 00:33:20 13° ENE 00:34:39 10° ENE visible
24 Apr 10.4 02:25:18 65° N 02:25:18 65° N 02:32:11 10° NNE visible
24 Apr 11.9 04:17:16 13° WNW 04:20:46 17° NW 04:25:47 10° N visible
25 Apr 11.9 00:48:51 22° ENE 00:48:51 22° ENE 00:52:01 10° NE visible
25 Apr 10.6 02:40:49 52° NW 02:40:49 52° NW 02:48:09 10° NNE visible
25 Apr 12.2 04:34:59 10° NW 04:37:40 12° NW 04:40:22 10° NNW visible
26 Apr 11.4 01:04:19 32° ENE 01:04:19 32° ENE 01:08:44 10° NE visible
26 Apr 11.0 02:56:17 36° WNW 02:56:34 37° NW 03:03:57 10° NNE visible
27 Apr 11.0 01:19:45 45° NE 01:19:45 45° NE 01:25:06 10° NNE visible
27 Apr 11.5 03:11:42 24° WNW 03:13:05 25° NW 03:19:34 10° N visible
27 Apr 12.3 23:43:11 11° ENE 23:43:11 11° ENE 23:43:35 10° ENE visible
28 Apr 10.7 01:35:08 55° NNE 01:35:08 55° NNE 01:41:15 10° NNE visible
28 Apr 11.9 03:27:05 15° WNW 03:29:46 18° NW 03:34:55 10° N visible
28 Apr 11.9 23:58:32 19° ENE 23:58:32 19° ENE 00:01:01 10° NE visible
29 Apr 10.7 01:50:29 51° NNW 01:50:29 51° NNW 01:57:14 10° NNE visible
29 Apr 12.2 03:43:44 10° WNW 03:46:40 12° NW 03:49:36 10° NNW visible
30 Apr 11.5 00:13:51 29° ENE 00:13:51 29° ENE 00:17:46 10° NE visible
30 Apr 11.1 02:05:48 38° NW 02:05:48 38° NW 02:13:02 10° NNE visible
01 May 11.0 00:29:06 42° NE 00:29:06 42° NE 00:34:10 10° NNE visible
01 May 11.5 02:21:03 25° WNW 02:22:06 26° NW 02:28:40 10° N visible
01 May 12.3 22:52:23 10° ENE 22:52:23 10° ENE 22:52:30 10° ENE visible
02 May 10.7 00:44:19 54° NNE 00:44:19 54° NNE 00:50:19 10° NNE visible
02 May 12.0 02:36:15 16° WNW 02:38:47 18° NW 02:44:03 10° N visible
02 May 11.8 23:07:32 19° ENE 23:07:32 19° ENE 23:10:00 10° NE visible
